Weather in Ivanovka

Ukraine / Kherson District     46°42′35″N   34°32′59″E
temp.,
°C
wind,
m/s
gust,
m/s
humid.,
%
clouds,
%
prec.,
mm/h
press.,
hPa
HPBL,
m
19 april, mon
mon1900:00+8sse2388100 0.0 1017112
03:00+9e1284100 0.0 101659
06:00+9ene2280100 0.0 101680
09:00+10ese2368100 0.0 1016310
12:00+12ene236193 0.0 1015565
15:00+15ene335079 0.0 10141267
18:00+14ne235795 0.0 10141034
21:00+11se3477100 0.0 1013106
20 april, tue
tue2000:00+10ene3677100 0.0 1011273
03:00+9ene51086100 0.8 1007441
06:00+9ene71294100 5.7 1004561
09:00+10se61198100 9.4 1001553
12:00+11ssw81287100 0.3 999950
15:00+10w7990100 0.5 999819
18:00+8wnw91487100 0.7 10041141
21:00+8w61286100 0.7 1008524
21 april, wed
wed2100:00+7wsw59928 0.1 1010269
03:00+5wsw410915 0.1 1012205
06:00+5w368910 0.0 1014103
09:00+11w356776 0.0 1016524
12:00+14w474893 0.0 10161930
15:00+15wsw454699 0.0 10171877
18:00+13sw4665100 0.6 1018684
21:00+9sw338253 1.1 101949
22 april, thu
thu2200:00+9ssw358870 0.0 1020122
03:00+7ssw349449 0.0 102078
06:00+6s37923 0.0 1021131
09:00+12ssw58715 0.0 1021612
12:00+16ssw675718 0.7 10211378
15:00+17sw775298 3.4 10211745
18:00+16sw57564 0.6 10211044
21:00+10sw36805 0.6 1022107
23 april, fri
fri2300:00+8ssw35865 0.0 102285
03:00+7ssw35875 0.0 102284
06:00+7ssw35881 0.0 102180
09:00+13ssw58665 0.0 1021605
12:00+17ssw67485 0.0 10201492
15:00+18sw6744100 0.0 10182299
18:00+17sw675430 0.0 10181244
21:00+12wsw3673100 0.1 1019207